Location: Praha
(50.0830°N, 14.4670°E)
Time: 18:23:15
(UTC+02:00)

ISS - Pass Details

Date: 13 July 2021
Orbit: 419 x 421 km, 51.6° (Epoch: 02 August)

Event Time Altitude Azimuth Distance (km) Brightness Sun altitude
Rises 02:54:40 0° 283° (WNW) 2,370 -0.1 -14.3°
Reaches altitude 10° 02:56:47 10° 285° (WNW) 1,505 -1.1 -14.2°
Maximum altitude 03:00:09 80° 13° (NNE) 431 -3.7 -13.9°
Drops below altitude 10° 03:03:32 10° 101° (E) 1,501 -0.7 -13.7°
Sets 03:05:38 0° 102° (ESE) 2,363 0.3 -13.5°
